[[{"header":{"parameterUnit":"m.s-1","parameterCategory":1,"la1":30.2992,"la2":30.254,"lo1":-89.0895,"lo2":-89.0443,"dy":0.0025,"dx":0.0025,"nx":19,"ny":19,"refTime":"2026-04-05T09:00:00:Z","depth":0,"parameterNumber":2,"parameterNumberName":"U-component_of_WINDS"},"data":[0,0,0,3.8066,3.8068,3.8126,3.8126,3.821,3.8211,0,0,0,0,0,0,0,0,0,0,0,3.8057,3.8057,3.8066,3.8068,3.8126,3.8126,3.821,3.8211,0,0,0,0,0,0,0,0,0,0,0,3.8056,3.8057,3.8058,3.8068,3.8126,3.8126,3.821,3.8162,0,0,0,0,0,0,0,0,0,0,3.8104,3.8103,3.8057,3.8058,3.8068,3.8126,3.8126,3.816,3.8165,3.8189,0,3.8213,0,3.8214,3.8218,3.8218,0,0,0,3.8061,3.8098,3.8107,3.8058,3.8069,3.8126,3.8098,3.8163,3.8169,3.8196,3.8214,3.8217,3.8215,3.8218,3.8219,3.8379,3.838,0,0,3.8058,3.8071,3.8103,3.8112,3.8105,3.8096,3.81,3.8166,3.8186,3.8215,3.8219,3.8217,3.8219,3.822,3.8378,3.8379,0,0,0,3.8053,3.8069,3.8076,3.8109,3.8118,3.8098,3.8102,3.8183,3.8185,3.822,3.8218,3.8219,3.8221,3.8377,3.8379,3.8442,0,0,0,3.8051,3.8066,3.8075,3.8083,3.8117,3.8152,3.8118,3.818,3.8187,3.8217,3.8219,3.8222,3.8376,3.8378,3.8438,3.847,0,0,0,3.805,3.8065,3.8077,3.8083,3.8109,3.8151,3.8155,3.8181,3.8186,3.8218,3.8222,3.8375,3.8377,3.8434,3.8463,3.8515,0,0,0,3.8052,3.8132,3.8078,3.8166,3.8109,3.819,3.8155,3.8215,3.825,3.822,3.8376,3.8378,3.8433,3.846,3.8511,3.856,3.8582,0,0,3.816,3.8145,3.8196,3.815,3.8244,3.818,3.8283,3.8303,3.8294,3.8351,3.8354,3.8439,3.8463,3.8514,3.8703,3.872,0,0,0,3.8234,3.8271,3.8293,3.8328,3.8346,3.8363,3.8366,3.8373,3.8421,3.8326,3.8472,3.8486,3.8515,3.8538,3.8553,3.8577,3.839,3.839,3.8389,3.8404,3.8389,3.8472,3.8464,3.8498,3.85,3.8526,3.8535,3.851,3.8545,3.8561,3.8677,3.8705,3.8716,3.8741,3.8587,3.8587,3.8587,3.8587,3.8559,3.8608,3.8573,3.8641,3.8624,3.868,3.8686,3.8666,3.8714,3.8664,3.8689,3.8634,3.8736,3.8757,3.8592,3.8591,3.859,3.859,3.859,3.8668,3.8689,3.8697,3.8745,3.8784,3.8773,3.8822,3.8805,3.8789,3.8814,3.8829,3.8828,3.8824,3.8822,3.8823,3.8823,3.8824,3.8824,3.8824,3.8777,3.8784,3.8828,3.8854,3.8874,3.8898,3.8901,3.8919,3.8935,3.8918,3.8918,3.8889,3.8749,3.8714,3.883,3.8829,3.8828,3.8828,3.8827,3.8939,3.89,3.8968,3.8988,3.9016,3.9055,3.9033,3.9072,3.9085,3.9109,3.9074,3.8974,3.8958,3.8946,3.8916,3.9078,3.9078,3.9078,3.9078,3.903,3.9021,3.9086,3.9119,3.9149,3.9136,3.9211,3.9214,3.9211,3.9217,3.9192,3.9152,3.914,3.913,3.9114,3.9086,3.9288,3.9288,3.9288,3.9128,3.9121,3.9189,3.9187,3.9208,3.9225,3.9296,3.9333,3.9321,3.9297,3.9222,3.9213,3.9148,3.9128,3.9101,3.9076,3.9025,0,0]},{"header":{"parameterUnit":"m.s-1","parameterCategory":1,"la1":30.2992,"la2":30.254,"lo1":-89.0895,"lo2":-89.0443,"dy":0.0025,"dx":0.0025,"nx":19,"ny":19,"refTime":"2026-04-05T09:00:00:Z","depth":0,"parameterNumber":3,"parameterNumberName":"V-component_of_WINDS"},"data":[0,0,0,0.5974,0.5982,0.6401,0.6403,0.6917,0.6921,0,0,0,0,0,0,0,0,0,0,0,0.5827,0.5829,0.5973,0.5983,0.6401,0.6403,0.6916,0.6921,0,0,0,0,0,0,0,0,0,0,0,0.5826,0.5829,0.5832,0.5984,0.6401,0.6403,0.6915,0.6609,0,0,0,0,0,0,0,0,0,0,0.6207,0.6047,0.5828,0.5832,0.5986,0.64,0.6404,0.6595,0.6628,0.6714,0,0.6777,0,0.6856,0.6953,0.6955,0,0,0,0.6002,0.6019,0.6151,0.5832,0.599,0.64,0.6218,0.6614,0.6651,0.6758,0.6785,0.6805,0.6865,0.6956,0.6959,0.7372,0.7373,0,0,0.5979,0.5893,0.6125,0.6174,0.6098,0.6204,0.623,0.6637,0.6664,0.6787,0.6817,0.6873,0.6959,0.6963,0.7371,0.7372,0,0,0,0.5899,0.5875,0.5999,0.6152,0.6229,0.6216,0.6246,0.6646,0.6693,0.6823,0.6879,0.6962,0.6968,0.737,0.7371,0.7335,0,0,0,0.5886,0.5829,0.5987,0.5939,0.622,0.6441,0.6245,0.6664,0.6713,0.6877,0.6962,0.6973,0.7369,0.7371,0.7334,0.7334,0,0,0,0.5808,0.582,0.5872,0.5933,0.6109,0.6436,0.6507,0.6677,0.6746,0.6955,0.6974,0.7368,0.737,0.7332,0.7333,0.7418,0,0,0,0.5701,0.5838,0.587,0.6046,0.6105,0.6407,0.6505,0.6737,0.6911,0.6965,0.7369,0.7371,0.7332,0.7332,0.7415,0.7474,0.7489,0,0,0.5826,0.585,0.5961,0.6001,0.6273,0.635,0.6623,0.6869,0.6972,0.7235,0.7246,0.7334,0.7332,0.7417,0.7602,0.7613,0,0,0,0.5972,0.605,0.6141,0.6298,0.6483,0.6646,0.6857,0.6949,0.7175,0.7086,0.739,0.7392,0.7445,0.7478,0.7487,0.754,0.7381,0.7381,0.7381,0.6028,0.6145,0.6337,0.6505,0.6658,0.6873,0.7011,0.7173,0.7253,0.7322,0.7402,0.7498,0.7532,0.754,0.7594,0.7441,0.7441,0.7441,0.7441,0.6224,0.6354,0.6451,0.6671,0.6798,0.6989,0.7203,0.7253,0.7454,0.7448,0.7502,0.7487,0.7548,0.7602,0.7439,0.744,0.744,0.744,0.744,0.6275,0.6358,0.6461,0.6701,0.6875,0.7044,0.7229,0.7341,0.7448,0.75,0.7598,0.7599,0.7616,0.7538,0.7539,0.7539,0.7539,0.7539,0.754,0.6287,0.6405,0.6543,0.675,0.6866,0.7033,0.7251,0.7372,0.7535,0.7603,0.7604,0.7679,0.753,0.7491,0.7546,0.7545,0.7544,0.7543,0.7543,0.6445,0.6426,0.6639,0.6754,0.7008,0.7174,0.7312,0.7547,0.7664,0.7753,0.7817,0.7687,0.7723,0.7716,0.7685,0.7787,0.7787,0.7787,0.7787,0.6489,0.6515,0.6758,0.6935,0.7123,0.7268,0.7513,0.7686,0.7863,0.7945,0.7946,0.7914,0.7901,0.7945,0.7933,0.7906,0.8062,0.8063,0.8063,0.6594,0.6643,0.6825,0.6989,0.7196,0.7373,0.7608,0.7816,0.8014,0.8077,0.8011,0.8,0.7949,0.7925,0.7987,0.7966,0.7919,0,0]}]]